Weather History for Huntsville, AL

Change the Weather History Date:

Sunday, August 17, 2014

  Actual Average Record
Temperature  
Mean Temperature 82 °F 80 °F  
Max Temperature 94 °F 91 °F 105 °F (1954)
Min Temperature 70 °F 70 °F 59 °F (2004)
Degree Days  
Heating Degree Days 0 0  
Month to date heating degree days 0 0  
Since 1 June heating degree days 0 1  
Since 1 July heating degree days 0 0  
Cooling Degree Days 17 15  
Month to date cooling degree days 241 269  
Year to date cooling degree days 1306 1394  
Since 1 June cooling degree days 1035 1131  
Growing Degree Days 32 (Base 50)    
Moisture  
Dew Point 70 °F    
Average Humidity 66    
Maximum Humidity 85    
Minimum Humidity 46    
Precipitation  
Precipitation 0.07 in 0.11 in 2.92 in (1966)
Month to date precipitation 0.54 2.04  
Year to date precipitation 35.61 34.75  
Snow  
Snow 0.00 in - - ()
Month to date snowfall 0.0  
Since 1 June snowfall 0.0  
Since 1 July snowfall 0.0  
Snow Depth 0.00 in    
Sea Level Pressure  
Sea Level Pressure 29.96 in    
Wind  
Wind Speed 5 mph (South)    
Max Wind Speed 20 mph    
Max Gust Speed 30 mph    
Visibility 9 miles    
Events Rain , Thunderstorm    
T = Trace of Precipitation, MM = Missing Value Source: NWS Daily Summary

Daily Weather History Graph

Daily Weather History Graph

Search for Another Location

Airport:

Trip Planner

Search our weather history database for the weather conditions in past years. The results will help you decide how hot, cold, wet, or windy it might be!

Date:

Astronomy

Aug. 17, 2014 Rise Set
Actual Time 6:09 AM CDT 7:32 PM CDT
Civil Twilight 5:42 AM CDT 7:59 PM CDT
Nautical Twilight 5:10 AM CDT 8:30 PM CDT
Astronomical Twilight 4:37 AM CDT 9:03 PM CDT
Moon No Moon Rise 1:34 PM CDT
Length of Visible Light 14h 16m
Length of Day
13h 23m
Waning Gibbous, 48% of the Moon is Illuminated
Aug 17
Waning Gibbous
Aug 25
New
Sep 2
First Quarter
Sep 8
Full
Sep 15
Last Quarter

Hourly Weather History & Observations

Time (CDT) Temp. Heat Index Dew Point Humidity Pressure Visibility Wind Dir Wind Speed Gust Speed Precip Events Conditions
12:53 AM 72.0 °F - 66.0 °F 81% 29.98 in 10.0 mi ESE 3.5 mph - N/A   Clear
1:53 AM 71.6 °F - 66.2 °F 83% 30.00 in 10.0 mi Calm Calm - N/A   Clear
2:53 AM 71.1 °F - 66.0 °F 84% 29.97 in 9.0 mi ESE 4.6 mph - N/A   Clear
3:53 AM 71.1 °F - 64.9 °F 81% 29.96 in 10.0 mi ESE 3.5 mph - N/A   Clear
4:53 AM 70.0 °F - 64.9 °F 84% 29.97 in 9.0 mi ESE 4.6 mph - N/A   Clear
5:53 AM 70.0 °F - 64.9 °F 84% 29.98 in 8.0 mi East 3.5 mph - N/A   Partly Cloudy
6:53 AM 71.1 °F - 66.0 °F 84% 30.00 in 7.0 mi ESE 3.5 mph - N/A   Scattered Clouds
7:53 AM 75.0 °F - 68.0 °F 79% 30.00 in 8.0 mi SSE 5.8 mph - N/A   Partly Cloudy
8:53 AM 82.0 °F 86.3 °F 71.1 °F 69% 29.98 in 8.0 mi SSW 6.9 mph - N/A   Partly Cloudy
9:53 AM 87.1 °F 92.8 °F 71.1 °F 59% 29.97 in 10.0 mi SW 11.5 mph - N/A   Partly Cloudy
10:53 AM 89.1 °F 95.0 °F 71.1 °F 55% 29.97 in 10.0 mi SW 8.1 mph - N/A   Scattered Clouds
11:53 AM 90.0 °F 96.4 °F 71.1 °F 54% 29.98 in 10.0 mi WSW 8.1 mph - N/A   Mostly Cloudy
12:53 PM 93.9 °F 99.1 °F 69.1 °F 44% 29.95 in 10.0 mi SW 15.0 mph 18.4 mph N/A   Mostly Cloudy
1:05 PM 91.4 °F 96.8 °F 69.8 °F 49% 29.97 in 10.0 mi SSW 13.8 mph 19.6 mph N/A Thunderstorm Thunderstorm
1:53 PM 80.1 °F 84.5 °F 73.9 °F 81% 29.98 in 3.0 mi West 6.9 mph - 0.07 in Rain , Thunderstorm Light Thunderstorms and Rain
2:20 PM 82.4 °F 88.2 °F 73.4 °F 74% 29.99 in 10.0 mi NW 8.1 mph - 0.00 in   Overcast
2:53 PM 80.1 °F 83.6 °F 71.1 °F 74% 29.95 in 10.0 mi SW 3.5 mph - 0.00 in Rain Light Rain
3:53 PM 80.1 °F 83.6 °F 71.1 °F 74% 29.96 in 10.0 mi WSW 4.6 mph - 0.00 in   Mostly Cloudy
4:53 PM 81.0 °F 84.9 °F 71.1 °F 72% 29.93 in 10.0 mi SSE 8.1 mph - N/A   Mostly Cloudy
5:53 PM 82.0 °F 85.9 °F 70.0 °F 67% 29.93 in 10.0 mi SW 3.5 mph - N/A   Mostly Cloudy
6:53 PM 81.0 °F 85.2 °F 72.0 °F 74% 29.91 in 10.0 mi South 8.1 mph - N/A   Mostly Cloudy
7:53 PM 79.0 °F - 73.0 °F 82% 29.93 in 10.0 mi Calm Calm - N/A   Mostly Cloudy
8:53 PM 78.1 °F - 73.0 °F 84% 29.92 in 10.0 mi SE 4.6 mph - N/A   Mostly Cloudy
9:53 PM 77.0 °F - 72.0 °F 84% 29.94 in 10.0 mi Calm Calm - N/A   Mostly Cloudy
10:53 PM 79.0 °F - 73.0 °F 82% 29.91 in 10.0 mi West 5.8 mph - N/A   Mostly Cloudy
11:53 PM 75.9 °F - 69.1 °F 79% 29.90 in 10.0 mi Calm Calm - 0.00 in Rain Light Rain